Location: Casteau
(50.5142°N, 4.0161°E)
Time: 15:28:21
(UTC+00:00)

NOSS 2-2 (D) - Pass Details

Date: 18 September 2020
Orbit: 469 x 1739 km, 63.3° (Epoch: 23 October)

Event Time Altitude Azimuth Distance (km) Brightness Sun altitude
Rises 19:20:29 0° 212° (SSW) 2,501 6.8 -14.8°
Reaches altitude 10° 19:22:31 10° 209° (SSW) 1,629 5.8 -15.1°
Maximum altitude 19:25:59 61° 128° (SE) 568 3.0 -15.6°
Drops below altitude 10° 19:29:55 10° 48° (NE) 1,856 5.8 -16.2°
Enters shadow 19:32:21 - 46° (NE) 2,886 6.8 -16.6°
